Wind_Gust
12 17 18 16 16 17 14 13 14 12 13 13 14 15 19 17 16 13 14 13 11 15 21 20 16 18 17 16 18 17 16 18 20 22 23 23 24 23 24 20 17 17 19 16 18 19 18 18 18 16 14 15 13 13 14 16 16 17 18 17 16 15 15 15 16 15 14 15 15 14 14 15 13 13 13 12 11 12 13 11 11 11 10 10 10 9
17 15 16 15 14 15 14 11 10 12 13 14 15 15 20 18 20 13 14 13 9 16 15 11 14 16 16 16 13 12 16 23 27 26 23 22 20 19 19 18 18 18 14 18 18 18 18 20 19 17 15 15 16 15 15 17 17 17 16 16 17 17 15 14 14 15 13 12 13 15 15 15 15 14 13 14 13 12 13 12 11 10 10 10 9 10
13 17 16 15 14 10 10 8 9 12 13 14 18 16 16 20 14 18 12 11 11 15 17 11 15 17 14 15 10 20 27 29 25 23 27 25 20 18 18 19 17 17 17 18 18 19 20 19 20 19 16 15 15 15 15 16 17 17 16 16 16 15 14 14 14 16 14 10 10 12 15 14 15 12 12 13 13 12 12 12 11 11 10 9 10 9
13 16 18 15 10 10 13 10 9 11 13 16 17 17 21 14 15 20 17 13 12 16 14 11 16 18 12 11 11 19 26 16 11 14 16 14 18 22 24 20 18 18 18 18 19 20 20 20 20 19 19 17 16 16 16 16 18 18 17 16 16 15 13 13 14 11 12 12 12 12 12 12 13 16 14 14 12 12 12 13 12 13 11 10 10 10
18 17 16 10 10 12 16 14 15 16 14 10 14 16 16 10 12 18 14 14 10 13 13 15 19 23 14 16 18 13 10 14 13 13 15 17 16 14 13 16 16 19 18 18 18 18 19 20 20 20 19 19 18 18 18 18 20 18 17 16 16 15 14 14 14 14 14 15 14 14 14 14 16 13 13 12 12 11 11 12 13 12 11 11 12 11
16 16 12 10 12 12 14 16 20 19 19 12 15 16 17 16 14 13 11 15 22 21 16 13 24 25 15 13 13 12 10 18 17 15 17 18 19 18 19 20 16 16 15 18 17 18 19 19 18 19 20 20 18 19 18 17 19 17 18 17 15 14 14 15 15 15 15 15 15 15 14 14 12 13 12 11 11 11 11 13 12 12 13 13 13 13
15 12 14 13 13 14 14 15 18 20 16 21 15 16 15 16 15 14 16 17 22 22 16 10 22 21 18 15 13 16 16 22 22 24 22 19 19 19 19 17 18 18 16 16 17 16 18 18 19 20 22 21 20 18 17 18 18 18 17 16 15 14 15 15 16 16 15 15 14 13 12 11 12 13 11 11 11 12 13 12 11 12 12 13 14 13
10 16 15 14 15 15 15 18 20 22 21 16 17 18 17 15 15 15 16 19 21 14 9 14 21 25 23 15 15 15 17 23 25 25 26 26 24 23 18 16 16 18 17 18 19 18 17 19 20 21 21 21 20 18 17 17 17 18 17 16 16 14 15 14 16 17 15 15 14 13 11 11 11 11 13 13 13 11 12 12 11 11 11 11 12 13
13 17 19 18 15 20 20 16 16 19 23 20 20 19 17 16 16 16 17 20 19 16 21 19 14 25 24 16 15 15 16 23 26 26 27 27 26 24 23 22 19 20 20 20 19 20 20 20 20 20 21 20 20 19 18 17 17 17 17 16 15 16 15 15 16 16 15 14 14 13 13 12 12 13 14 14 13 13 12 12 10 10 10 11 11 12
16 15 16 17 20 20 18 15 15 16 20 16 24 20 17 16 16 15 19 17 16 18 21 16 14 23 16 18 15 17 19 25 26 25 26 26 27 27 26 23 20 20 20 21 22 20 20 20 20 19 19 21 21 19 17 16 17 18 17 17 17 17 16 15 17 15 15 14 15 14 13 15 14 14 14 13 14 13 11 12 11 10 10 10 11 12
12 11 12 22 20 17 18 15 13 13 14 21 22 25 21 20 21 19 18 16 16 21 19 16 15 19 24 19 20 21 21 22 23 22 25 26 27 27 27 26 26 23 21 21 21 20 19 19 19 20 20 20 19 18 18 18 19 18 18 18 18 17 16 16 17 16 16 16 16 16 16 16 16 15 15 16 15 13 12 12 11 11 10 10 11 11
15 15 13 17 14 18 17 20 13 11 14 18 21 20 24 26 30 28 21 21 25 22 18 15 15 12 27 17 17 19 16 19 21 23 26 27 28 28 26 28 28 24 21 18 19 18 16 17 18 20 21 21 20 19 21 20 20 19 19 19 19 17 16 16 17 16 17 17 17 16 17 17 17 17 17 16 16 14 13 12 13 12 12 11 11 10
16 20 13 12 11 23 21 22 12 13 19 19 16 18 19 20 17 19 18 21 25 22 16 16 19 15 18 15 17 17 21 23 22 23 24 25 26 25 26 28 27 27 22 19 17 15 18 20 21 21 22 21 20 22 22 21 20 20 20 19 20 18 17 17 16 17 16 16 17 18 18 17 18 17 16 16 15 14 14 14 13 13 14 13 12 11
15 13 19 20 11 24 20 23 22 18 18 15 14 11 12 13 14 15 13 11 14 16 11 18 19 14 17 18 18 18 18 21 21 22 21 24 24 24 26 26 27 28 26 24 22 17 17 18 19 19 20 22 26 20 21 21 21 21 21 21 21 19 17 17 17 17 17 17 17 18 18 18 19 17 17 15 16 15 14 14 14 13 13 13 11 11
16 15 21 23 19 21 18 18 19 21 21 16 13 16 15 15 13 11 12 10 10 14 15 13 14 16 18 16 17 19 17 21 22 24 22 23 24 22 22 25 27 26 25 25 23 21 18 15 16 16 18 19 19 19 19 18 18 20 21 22 22 21 19 18 17 16 17 17 18 18 18 19 17 18 18 16 16 15 15 14 14 13 13 13 12 12
14 16 18 14 14 16 16 14 15 17 17 10 13 14 13 12 11 16 16 17 14 11 14 17 13 13 15 15 19 20 19 22 25 27 27 27 28 27 28 31 30 29 27 25 23 21 20 16 12 13 15 16 17 18 18 19 19 20 21 20 20 20 21 19 17 16 18 18 18 18 18 18 17 17 17 17 16 15 14 14 14 14 12 13 12 12
16 14 15 11 8 16 15 14 18 18 15 17 16 11 17 13 15 12 9 11 9 13 13 12 16 17 19 16 22 24 25 28 29 30 29 28 28 26 26 27 27 27 28 28 25 23 20 18 16 14 15 15 16 18 20 21 21 21 22 21 19 19 18 18 16 16 15 17 17 18 18 18 17 17 17 18 17 16 15 14 14 14 14 13 12 13
15 17 15 18 19 14 14 12 15 20 18 17 12 17 15 13 16 14 13 8 11 11 11 11 10 11 15 15 22 28 30 31 32 32 29 27 27 27 28 27 27 26 24 23 24 24 23 20 16 15 14 15 19 20 19 20 20 21 21 21 22 22 19 18 15 15 13 15 16 17 18 17 17 18 18 18 19 17 17 16 15 15 15 14 13 13
15 16 18 14 10 16 15 10 11 19 20 18 15 11 16 10 10 13 12 9 7 6 9 13 13 17 16 18 24 26 29 30 31 31 30 31 31 30 27 27 25 24 24 24 22 24 25 24 19 14 18 20 21 19 16 17 16 17 16 18 16 19 20 21 17 16 17 16 16 16 17 17 18 17 18 19 19 17 17 18 16 16 15 14 13 14
9 13 20 13 12 12 14 18 16 18 15 13 13 13 12 15 14 11 10 11 19 7 7 11 11 10 16 14 15 17 21 22 26 27 27 28 28 29 28 27 27 25 24 24 23 22 24 24 22 16 16 16 14 13 13 13 12 14 15 17 21 21 20 18 18 16 17 18 17 16 17 18 19 19 19 19 19 18 18 18 17 16 14 14 14 13
11 13 11 18 11 16 17 21 19 19 20 21 21 18 17 15 12 16 9 14 13 12 10 11 9 15 13 13 17 19 19 19 22 24 24 26 26 25 24 26 25 24 24 23 23 22 22 22 22 20 14 14 13 12 12 15 17 16 16 17 20 22 20 20 19 17 17 19 19 18 18 18 18 18 18 17 17 16 17 16 16 16 14 15 14 14
8 9 8 11 15 17 17 14 16 16 18 19 18 16 17 18 12 11 9 10 10 13 7 9 11 17 14 14 16 18 18 19 20 21 23 23 25 25 25 24 23 23 23 22 21 20 20 20 20 21 19 13 11 12 13 16 17 15 14 15 16 18 19 21 22 18 18 19 20 19 19 18 17 18 18 18 18 16 17 16 16 15 15 14 14 14
16 12 11 8 13 13 12 12 11 12 12 14 17 15 15 10 15 12 11 10 12 11 11 11 11 11 11 12 16 16 18 19 19 20 22 22 22 23 25 24 21 20 21 22 21 19 19 17 18 19 20 18 13 11 12 14 15 17 19 20 21 21 17 19 20 19 20 20 18 19 19 19 19 19 18 18 17 17 17 16 15 15 15 15 14 14
7 16 10 11 10 12 13 12 10 9 9 8 12 15 13 13 12 14 14 14 12 7 10 8 7 12 12 12 15 16 17 19 20 20 22 22 21 23 23 24 22 22 20 20 20 20 20 17 15 17 18 20 20 12 13 16 14 14 17 22 20 18 22 20 19 19 17 16 16 17 17 19 20 20 20 20 19 18 16 16 16 16 15 15 13 15
12 15 16 9 14 19 17 15 13 14 12 15 13 15 12 9 7 8 11 10 9 12 12 14 9 9 14 10 15 17 18 21 22 23 22 22 22 22 22 22 21 21 21 22 22 21 21 20 20 20 19 18 19 17 11 13 16 17 19 20 22 18 21 25 22 19 19 18 19 18 16 16 17 19 19 19 19 18 18 17 17 15 15 14 14 14
12 10 15 14 12 12 14 15 15 14 16 11 10 15 13 12 9 10 9 10 5 8 11 11 11 13 13 13 19 20 21 22 21 22 22 20 18 22 22 21 21 21 22 22 22 22 22 21 21 21 19 20 20 19 16 12 14 17 19 21 20 21 23 24 21 23 23 21 25 24 21 20 19 21 22 22 20 19 19 18 17 16 14 16 16 15
9 8 13 14 16 15 15 11 11 11 12 12 12 13 14 11 11 13 15 9 9 11 11 12 10 16 18 23 24 24 23 24 26 26 25 25 22 21 20 21 20 20 21 22 21 22 20 20 20 20 19 19 18 18 17 15 14 16 19 19 20 22 22 23 25 24 22 23 23 24 26 27 25 24 24 24 22 20 19 18 17 18 17 15 15 16
10 8 10 10 10 11 9 9 7 8 9 8 10 11 13 14 13 15 11 12 13 13 10 12 15 15 17 19 21 23 22 21 20 20 21 20 20 21 21 21 17 21 20 20 22 23 22 20 18 17 17 17 19 19 19 18 16 16 17 19 19 20 21 25 23 24 24 25 24 25 25 26 25 24 23 22 21 19 16 14 15 15 14 14 16 16
14 5 8 9 10 8 9 9 10 13 11 10 10 10 12 11 14 14 12 12 14 11 13 12 13 13 14 17 20 20 20 20 19 20 18 16 18 20 22 22 23 22 21 22 22 22 22 23 20 18 18 15 15 16 15 17 17 15 14 16 18 20 22 21 22 25 26 26 28 28 26 25 25 24 23 21 20 17 16 15 13 13 14 15 15 15
14 10 8 9 9 10 12 11 11 13 12 12 11 10 10 12 12 12 12 12 11 10 10 11 12 11 14 18 19 20 18 17 17 14 16 18 20 21 21 22 24 24 24 23 24 23 22 23 21 19 20 20 19 17 16 13 13 15 15 14 15 17 18 20 21 22 24 25 25 25 25 26 23 22 22 20 19 17 16 16 16 15 15 16 16 15
16 10 8 10 14 12 12 12 11 11 10 14 10 8 8 8 8 9 9 10 8 7 11 13 12 11 13 15 17 18 16 15 17 18 19 18 20 21 22 22 22 23 23 23 24 24 23 23 22 21 20 20 20 17 15 14 11 9 10 11 13 16 18 20 22 22 23 25 23 22 23 22 23 24 25 20 18 16 16 16 16 16 16 16 16 15
13 9 11 11 12 10 10 12 13 11 10 9 9 8 9 9 9 8 8 6 11 10 11 12 13 15 17 17 17 16 17 18 19 18 17 19 20 21 22 22 22 22 23 23 23 23 23 23 23 23 23 22 20 17 15 14 13 11 11 10 12 14 15 19 23 25 25 25 24 24 24 23 24 24 23 22 22 19 18 16 16 16 18 17 18 17
12 11 8 7 13 6 9 11 13 12 15 19 17 11 8 7 8 9 10 9 9 9 11 11 16 17 18 17 19 18 19 18 19 18 17 18 19 20 21 22 22 22 23 23 23 23 23 23 21 21 21 21 22 22 18 14 12 11 11 11 10 12 15 18 23 24 24 24 23 22 24 24 24 25 25 24 24 20 18 18 17 17 18 19 20 19
9 12 7 7 11 7 11 13 12 15 15 12 17 9 8 9 9 10 10 10 10 12 12 13 16 16 16 18 19 20 19 20 19 18 15 16 19 19 21 21 21 22 22 23 22 23 23 23 23 23 22 21 21 21 20 17 15 13 11 11 11 12 15 18 20 22 22 21 22 23 23 23 24 25 23 22 20 17 18 18 20 19 20 20 21 21
8 9 7 8 12 8 12 12 13 13 17 18 10 11 8 9 10 11 14 15 15 12 12 14 14 15 16 16 17 18 18 18 16 15 15 15 16 18 21 21 21 22 22 22 23 23 23 23 23 22 22 22 22 21 20 19 18 16 14 11 11 11 13 15 16 19 20 21 21 21 20 20 21 21 18 18 18 19 20 21 20 21 22 23 22 22
7 10 10 8 9 8 10 13 7 11 13 13 14 10 10 9 9 12 14 11 10 11 10 13 14 15 15 17 17 17 18 20 16 12 13 15 17 18 20 21 21 20 21 22 22 22 22 23 23 23 22 21 21 21 21 20 19 18 16 13 12 10 12 13 14 15 17 20 20 20 20 20 21 21 20 20 21 22 22 22 23 24 23 21 21 22
13 11 10 9 10 10 8 10 16 12 14 14 8 14 15 12 10 12 11 11 12 8 10 13 15 15 16 16 18 19 20 19 12 14 15 20 19 19 19 19 19 20 20 20 20 22 21 22 22 22 21 20 20 21 20 20 19 19 17 16 14 13 12 12 14 14 15 17 18 17 19 19 19 19 19 20 21 22 21 21 23 21 21 21 21 21
9 15 10 12 9 11 14 15 14 13 12 13 9 14 8 7 7 9 12 18 13 10 9 11 14 16 17 17 18 19 20 17 19 21 20 22 20 19 19 17 19 19 20 21 21 21 22 21 21 22 22 21 20 20 20 19 20 19 17 16 15 15 15 14 14 14 16 17 17 18 14 14 14 15 17 18 21 22 22 22 21 18 18 21 21 21
10 13 13 13 8 8 11 13 12 13 12 12 12 9 8 9 10 11 14 16 18 9 9 11 13 16 16 18 17 16 20 23 22 21 23 23 22 20 20 20 20 20 20 21 22 23 22 22 22 22 21 21 21 22 21 21 20 20 19 18 18 16 16 16 15 15 15 16 15 17 17 15 15 16 16 19 20 18 18 19 18 19 18 20 20 20
14 12 9 14 7 10 11 12 14 15 8 10 12 11 10 10 12 15 15 13 13 9 10 10 13 16 16 15 14 15 18 20 23 24 23 22 19 18 18 19 20 20 20 20 19 20 21 21 23 22 22 22 21 21 21 20 21 20 19 19 19 18 17 17 16 16 15 14 13 14 18 18 19 18 19 20 17 16 19 17 15 16 18 17 18 18
9 9 10 11 13 10 7 17 16 15 14 12 12 11 11 11 11 13 15 16 12 11 10 9 13 14 13 14 14 17 15 16 18 18 19 19 18 19 18 17 18 19 20 20 20 17 21 22 22 23 23 21 22 21 20 22 22 21 20 20 19 18 18 18 16 16 15 15 15 18 21 18 20 21 19 18 19 17 16 17 19 19 18 19 19 18
13 11 7 7 13 13 8 14 15 15 15 15 14 11 14 12 12 11 21 9 9 12 12 10 13 14 13 13 14 15 17 17 17 17 17 17 17 17 18 18 19 20 19 19 17 18 20 22 21 21 22 21 22 21 20 21 22 22 22 21 20 19 19 19 18 17 16 16 16 16 16 16 15 16 16 16 17 18 19 20 20 21 22 23 22 23
11 8 8 8 10 9 9 14 14 14 8 11 18 14 12 10 13 15 12 10 11 11 12 12 12 13 13 15 14 15 16 17 17 18 18 18 19 19 18 18 19 21 22 22 22 20 20 21 21 22 21 22 20 21 20 20 20 21 20 22 19 19 19 19 18 18 18 18 18 15 16 16 19 19 15 17 19 18 19 20 22 22 24 25 25 27
10 11 12 11 15 16 10 12 11 14 19 19 17 12 15 19 18 13 12 15 11 12 12 12 12 13 13 14 16 17 18 18 18 18 19 20 20 20 20 20 20 20 20 21 20 19 19 20 21 22 20 22 22 21 21 20 21 21 22 21 20 19 19 18 18 18 18 17 17 17 16 16 16 16 15 17 19 20 19 20 20 21 21 23 25 24
17 13 14 12 13 15 14 15 15 10 11 19 15 16 16 15 14 13 14 14 15 14 10 14 14 13 14 15 17 18 20 18 19 19 21 22 22 22 21 21 21 21 21 20 20 18 18 21 21 22 22 23 22 23 22 20 21 21 21 20 19 19 19 18 18 18 17 18 18 17 16 16 17 17 18 17 18 19 21 19 17 20 18 21 22 20
9 9 8 14 20 13 21 24 20 18 14 14 17 16 16 15 14 14 15 16 14 15 13 15 14 15 16 15 18 18 19 19 19 21 22 22 22 21 21 21 20 19 19 19 19 18 18 19 20 21 22 23 22 23 22 22 22 22 22 21 19 19 19 18 17 17 18 19 18 18 18 18 17 18 17 18 19 21 22 22 22 23 21 19 21 23
12 13 14 18 10 11 16 13 12 16 14 14 15 12 13 15 16 15 14 16 16 16 16 14 15 15 16 17 17 19 19 18 19 20 20 21 21 20 21 21 20 21 22 22 20 19 21 20 24 23 23 23 22 23 24 22 23 23 23 23 22 21 20 20 18 19 19 19 19 17 17 18 20 19 19 19 20 20 21 23 24 25 25 27 27 28
13 12 17 19 18 22 21 16 11 9 12 14 15 16 16 15 15 14 15 14 15 15 16 16 16 17 15 17 16 17 18 17 19 20 20 20 21 22 22 21 22 23 22 22 22 22 22 23 23 25 25 26 24 24 25 25 25 26 25 24 23 21 21 19 19 20 21 21 19 19 18 19 17 21 20 21 22 22 23 24 25 27 28 29 30 28
13 12 11 9 17 18 19 23 25 21 22 21 19 16 14 12 11 11 12 15 16 17 17 16 15 16 15 16 14 16 18 19 19 19 21 22 23 23 24 25 24 23 24 24 24 23 25 22 23 22 23 26 27 26 26 25 25 25 25 24 23 20 20 20 19 20 21 22 21 19 18 18 19 20 21 21 23 24 24 25 26 27 25 25 28 27
15 21 15 13 17 18 18 16 10 12 12 14 14 13 12 11 12 14 14 15 15 16 15 15 14 13 14 13 16 17 19 19 20 21 22 24 24 24 23 24 24 25 25 24 24 24 23 22 21 20 22 25 26 28 28 26 26 26 26 25 21 20 20 20 21 20 21 22 21 20 19 19 19 19 20 21 22 24 24 12 7 13 25 25 16 19
20 16 17 18 17 18 14 14 12 14 16 16 15 13 9 10 13 15 15 16 15 13 12 14 16 16 14 16 16 18 19 21 23 23 24 25 26 26 25 24 23 23 24 23 23 22 22 21 20 19 21 24 26 30 30 28 27 27 26 25 22 21 22 23 21 21 22 21 20 19 19 20 19 19 20 21 22 22 24 23 15 8 7 8 15 21
Wind_Speed
3 5 2 4 5 6 6 5 6 5 5 5 6 7 8 7 6 4 5 2 1 6 10 10 8 9 8 6 2 3 6 8 10 11 11 11 11 11 11 10 8 7 7 8 10 10 10 10 9 8 6 6 6 5 5 6 6 6 7 7 8 7 8 6 6 6 5 5 5 5 5 5 5 5 5 4 4 4 5 4 4 3 3 3 3 2
7 3 4 6 6 6 7 4 3 4 5 6 6 6 8 8 8 3 2 5 2 6 4 3 6 7 8 6 2 2 6 8 8 9 11 11 10 9 10 9 8 7 6 10 9 10 10 10 11 9 7 7 8 7 6 7 7 7 7 8 8 7 7 6 5 4 4 4 4 4 4 5 5 5 5 5 5 4 4 4 4 3 3 3 2 3
4 4 6 6 5 3 3 2 2 5 5 6 6 6 6 7 6 3 1 3 3 5 6 3 6 7 6 3 2 4 5 4 4 6 8 10 10 8 8 8 8 9 8 9 9 10 10 11 11 9 7 7 7 8 8 8 8 8 7 7 7 6 6 6 5 5 4 4 4 3 4 3 4 4 4 5 5 5 4 4 3 3 2 2 2 2
4 5 7 5 3 3 2 2 1 3 5 6 6 6 8 4 2 6 7 6 4 5 4 1 6 7 4 3 3 2 3 3 2 3 4 5 8 9 8 8 8 10 8 9 10 11 11 11 10 9 9 8 7 8 8 8 9 8 7 7 7 7 6 5 6 4 6 6 6 5 4 4 3 4 5 5 4 5 4 4 3 3 2 3 2 3
7 7 5 3 2 4 4 3 7 5 4 2 6 6 5 3 3 7 3 4 3 6 5 6 7 9 5 6 7 5 2 1 1 0 1 3 4 3 2 3 4 7 7 7 9 10 10 11 11 10 10 9 8 9 9 9 9 6 8 8 8 6 6 6 6 6 7 7 7 6 6 5 5 5 4 4 3 3 3 3 3 4 3 3 3 2
5 7 4 3 3 3 6 4 8 8 7 0 6 7 8 7 7 6 4 6 8 8 6 5 8 9 6 4 1 2 2 7 7 6 6 4 2 2 5 5 4 5 4 4 7 9 10 10 10 10 11 10 9 9 9 8 8 7 7 8 8 6 5 6 7 8 7 6 6 6 5 5 4 4 3 3 3 3 3 4 4 4 4 4 3 3
5 4 4 5 6 6 6 3 9 11 5 9 5 7 7 8 7 6 8 6 8 9 6 3 8 5 7 7 2 2 5 11 11 13 13 10 7 3 2 3 5 7 7 7 6 8 10 10 10 11 11 10 9 8 9 8 8 8 7 7 8 6 6 6 7 8 6 7 6 6 5 4 3 3 3 3 3 3 3 4 4 4 4 4 4 4
2 6 6 5 5 6 6 5 8 11 7 4 6 9 9 7 7 8 8 8 8 6 2 6 7 9 8 3 4 2 9 8 12 14 15 14 13 13 9 5 6 7 8 9 10 10 9 10 11 12 11 10 9 8 8 8 8 8 8 8 8 6 6 6 6 8 6 6 6 6 5 4 4 3 5 4 4 3 4 4 4 3 3 3 3 3
6 7 9 9 7 5 5 6 7 9 9 7 9 10 9 7 7 8 8 8 8 6 7 7 6 9 8 5 6 6 6 11 14 14 15 15 15 14 13 11 8 7 8 9 9 10 11 11 11 11 12 11 11 10 8 8 8 8 8 8 8 7 6 6 7 7 7 5 6 6 5 5 4 5 5 5 4 4 4 4 3 3 3 3 2 2
6 7 7 8 7 6 8 7 6 8 8 6 12 11 7 8 8 7 8 7 6 6 8 6 5 7 4 7 4 7 8 12 12 13 14 15 16 15 14 13 11 7 6 8 9 9 10 10 11 11 11 12 11 10 10 8 7 9 8 9 9 8 6 6 7 7 7 6 6 6 6 7 6 6 5 5 5 5 4 4 4 3 3 3 3 2
4 4 5 8 8 7 9 6 5 5 6 9 11 13 10 7 8 8 6 6 5 8 7 2 4 6 7 6 7 7 8 9 10 9 12 14 14 15 15 15 13 11 5 3 5 7 8 9 9 11 11 12 11 9 9 9 9 9 9 9 9 9 7 7 7 7 7 6 6 6 7 8 8 8 7 6 6 5 5 4 4 4 3 3 3 3
5 4 1 6 7 8 8 10 4 3 5 8 7 7 6 6 11 12 6 8 9 6 8 3 3 3 11 4 5 7 8 9 10 12 14 15 15 14 14 15 15 13 10 7 3 4 6 6 8 9 10 11 11 10 10 10 10 10 9 10 11 10 9 7 8 8 8 8 7 6 8 9 9 9 7 7 7 6 6 5 5 4 4 4 3 3
3 4 4 4 2 13 10 10 2 4 4 6 6 4 6 3 0 3 1 6 8 5 5 4 6 5 4 5 7 8 9 10 10 10 12 13 14 13 14 15 14 14 12 9 6 4 4 4 7 8 9 10 11 11 11 11 11 11 11 11 12 11 10 8 9 9 9 8 7 7 8 8 8 9 8 8 7 6 6 6 5 5 5 5 4 3
4 5 7 10 3 11 10 9 8 5 6 5 4 3 2 2 3 4 4 2 4 2 2 2 4 1 7 6 6 7 9 11 11 12 12 12 13 12 13 13 13 13 14 12 11 8 5 5 4 5 8 9 9 10 9 11 12 11 11 12 12 12 10 9 9 9 9 8 7 7 7 8 8 9 8 7 7 7 6 5 6 5 5 5 4 4
5 4 7 11 6 10 7 7 8 8 8 5 4 5 4 4 4 3 2 3 1 4 5 5 5 4 8 4 7 8 8 11 11 12 11 12 12 12 11 12 13 13 13 12 11 10 9 7 6 4 4 5 7 9 10 9 10 10 11 12 13 12 11 10 9 8 8 7 7 7 7 7 7 8 8 7 7 7 7 6 6 5 5 5 5 4
5 4 7 6 6 8 7 6 6 8 6 1 4 4 4 3 2 5 3 6 5 1 4 6 1 3 4 5 9 9 9 11 13 15 15 15 14 13 11 12 13 12 12 12 12 11 12 9 6 5 4 4 6 9 9 11 10 9 11 11 11 12 11 9 9 8 7 7 7 8 8 8 8 8 8 7 7 6 6 6 6 6 5 5 5 4
6 3 7 4 1 7 6 6 8 8 4 5 5 3 6 1 5 4 3 2 2 4 0 3 5 6 7 4 12 13 13 15 17 17 16 16 16 15 13 13 13 13 12 11 11 11 12 10 8 5 5 4 5 7 9 10 11 12 12 11 11 11 9 9 6 6 6 6 7 8 9 9 8 9 9 9 9 8 7 7 6 6 6 6 5 5
5 5 6 7 6 5 3 5 6 9 7 5 2 6 6 4 7 4 3 1 3 3 1 2 2 4 4 2 9 14 15 16 16 16 15 15 15 15 14 14 14 14 13 12 11 11 12 11 8 7 5 5 5 6 8 10 9 9 10 11 12 13 10 9 6 8 7 8 8 8 9 9 8 8 9 9 10 9 8 7 7 6 6 6 5 5
5 3 7 6 2 5 2 2 3 5 8 7 6 2 6 1 3 3 2 3 2 1 0 4 4 7 5 5 10 12 12 14 15 14 15 16 16 15 14 15 15 14 13 12 12 11 12 12 10 6 6 6 5 3 4 4 5 6 8 10 8 9 11 13 9 9 9 9 7 7 8 9 9 8 9 9 10 9 9 9 8 7 7 6 6 5
2 4 5 4 5 3 4 6 4 6 3 4 5 1 3 4 3 3 2 3 5 2 1 2 3 2 6 5 8 10 10 10 9 11 12 13 13 13 13 13 14 13 12 12 12 11 11 12 12 8 5 5 4 3 2 2 1 2 4 2 8 9 11 10 10 9 10 10 9 8 9 9 9 9 9 9 9 9 9 9 8 8 7 7 6 6
2 2 3 6 3 7 2 7 7 7 8 6 5 5 5 4 2 4 1 3 4 4 3 3 1 4 5 5 7 9 10 10 11 11 10 9 11 11 12 12 12 12 12 12 11 11 10 11 12 11 6 5 5 4 3 4 3 4 5 6 9 10 11 11 10 9 9 8 10 10 11 10 10 10 9 9 9 8 8 8 8 7 6 7 6 6
1 1 2 1 2 5 5 5 8 8 8 7 6 6 6 7 2 3 2 1 2 3 2 3 2 6 5 3 6 8 8 9 9 10 10 10 10 10 10 11 11 11 12 12 11 10 9 10 10 10 9 4 3 3 5 4 3 4 5 6 8 9 9 10 9 8 9 9 10 11 11 11 9 9 9 9 9 8 8 8 7 7 7 7 6 6
5 3 3 2 4 4 4 3 4 5 5 6 7 6 6 3 5 2 4 3 3 2 3 2 3 3 2 3 5 7 8 8 9 9 9 8 9 9 9 10 10 11 11 11 11 10 9 8 8 8 9 9 6 2 2 3 4 4 4 5 7 8 9 10 9 9 10 11 10 11 11 11 10 10 10 10 9 9 8 8 8 7 7 7 6 6
2 4 3 2 1 4 5 4 3 0 2 1 3 6 5 5 5 5 4 4 3 1 2 1 0 3 2 4 5 6 7 8 8 9 9 8 8 9 10 10 10 10 10 10 10 10 9 9 7 7 8 8 8 6 3 4 5 5 5 5 6 8 9 8 10 9 8 7 7 8 9 10 11 12 11 11 9 10 9 8 7 7 7 7 5 6
3 4 5 2 4 6 5 3 3 5 1 5 4 6 5 3 2 3 4 2 2 4 5 4 3 1 4 2 5 7 8 9 10 10 9 8 8 9 10 10 9 9 9 10 11 11 10 11 10 10 9 8 8 7 3 3 5 5 6 5 5 6 7 8 7 7 9 10 12 11 7 8 8 11 11 11 10 10 10 9 8 7 7 6 6 5
3 3 5 4 5 4 4 3 2 2 6 2 4 5 4 5 3 2 2 2 1 1 3 3 3 4 2 4 7 9 10 10 9 9 9 8 9 10 10 10 9 9 10 10 10 10 11 10 10 10 10 9 9 8 7 5 1 4 6 6 7 6 7 7 5 8 8 9 11 11 13 11 10 11 12 12 11 11 10 9 9 8 7 7 6 6
1 1 4 5 5 4 5 4 4 4 4 3 4 3 5 4 5 6 5 2 2 3 1 4 3 5 5 7 9 10 10 10 10 10 10 10 10 10 10 10 9 8 9 10 10 10 10 10 11 11 10 9 9 10 8 6 5 3 2 6 8 7 7 8 8 9 9 12 13 12 13 13 14 13 13 13 12 10 10 10 9 9 9 7 6 6
2 1 3 4 4 4 3 2 1 2 3 1 2 3 3 4 5 5 3 4 5 4 2 2 4 5 6 8 9 10 10 9 8 9 9 9 9 10 10 10 11 10 9 9 10 11 11 10 9 9 9 9 9 9 9 9 7 4 2 2 4 6 7 6 7 9 11 13 14 13 12 14 14 13 13 12 12 11 9 7 8 8 7 7 6 6
5 1 1 3 2 2 1 1 0 1 1 1 1 2 3 3 4 4 4 5 7 3 4 4 4 5 5 7 8 8 9 9 8 8 8 8 9 10 11 11 11 11 11 11 10 10 10 11 9 10 9 6 8 8 8 8 8 7 6 2 3 5 7 6 9 11 13 14 15 16 15 14 14 13 12 11 11 10 8 8 7 6 6 6 6 5
4 1 2 2 1 1 0 2 2 3 4 4 2 0 2 3 3 3 3 3 5 4 3 4 4 4 5 7 7 8 7 7 7 6 7 9 10 11 12 11 11 11 11 11 11 11 11 11 10 10 10 9 6 6 7 6 6 7 7 7 6 4 5 7 9 9 11 13 14 14 14 14 13 12 13 11 11 9 8 8 8 8 6 7 7 7
6 2 2 3 5 2 1 2 3 3 3 2 2 1 1 2 2 2 2 1 2 1 2 3 3 1 5 6 8 8 7 7 7 8 8 9 10 11 12 12 12 12 12 12 11 11 11 12 12 12 12 11 9 8 5 5 4 2 4 4 5 6 7 6 7 7 9 10 11 12 13 12 11 12 14 12 9 8 8 8 8 8 8 7 7 7
5 1 3 4 4 2 2 4 3 2 1 2 2 2 1 1 2 0 2 1 4 3 4 4 4 3 6 8 8 7 8 8 9 9 9 8 10 11 11 12 12 13 13 13 13 12 12 12 12 13 13 13 11 9 7 5 5 3 1 3 5 6 6 7 7 7 8 8 11 10 10 10 11 12 12 12 12 10 9 8 8 8 9 8 7 7
4 2 2 1 4 0 2 3 5 5 7 8 8 5 2 1 2 2 3 3 3 3 4 2 4 6 8 8 8 8 9 9 9 9 8 9 10 11 11 12 12 12 12 13 13 13 13 12 12 12 12 12 11 11 10 7 5 4 4 4 4 4 6 7 7 7 9 8 10 9 8 9 10 9 11 12 13 11 9 9 9 9 10 10 9 8
2 4 1 1 3 0 3 5 4 5 6 1 6 3 1 2 2 4 3 4 4 5 3 4 5 6 8 8 9 9 9 9 9 8 5 7 8 10 11 11 11 12 12 12 12 13 13 12 12 12 12 12 12 11 11 9 6 5 5 4 4 5 5 6 6 7 8 8 8 8 9 8 9 9 12 12 11 8 9 9 10 10 10 8 8 9
1 2 0 1 3 1 3 4 4 6 3 8 3 4 2 1 3 4 6 5 6 5 4 5 4 7 7 7 8 9 8 8 8 5 6 7 8 9 10 11 11 12 12 12 13 13 13 13 13 13 12 12 12 10 9 9 8 7 5 4 4 4 5 5 5 6 6 7 7 7 7 6 6 8 8 8 9 8 8 9 9 11 10 9 10 10
0 2 0 2 2 1 3 4 3 1 6 5 3 4 2 2 1 5 7 5 3 3 4 5 5 6 7 8 8 7 8 9 3 3 6 7 8 8 10 10 11 11 11 11 12 12 12 13 13 13 12 11 11 10 10 10 9 8 7 4 4 3 3 4 5 5 4 5 5 6 5 5 7 8 8 7 7 8 9 10 11 13 11 10 9 10
2 1 2 1 1 3 2 3 5 3 5 6 3 6 6 3 2 4 4 3 6 2 3 4 5 6 7 7 8 8 9 7 2 4 6 10 9 9 9 9 10 10 10 11 11 11 11 12 12 12 11 11 11 11 10 10 10 9 8 7 5 4 3 3 3 4 4 5 4 5 5 4 6 7 7 9 10 11 11 11 11 10 10 10 10 11
1 6 2 4 2 3 5 5 4 4 4 4 2 7 2 1 0 2 4 7 6 3 2 4 5 6 7 7 8 9 10 7 2 3 7 10 9 9 9 9 9 9 9 10 11 11 12 11 11 11 11 11 11 11 10 10 10 9 8 7 6 6 6 4 4 3 3 4 4 5 5 4 5 6 7 9 11 11 12 12 11 9 7 9 9 10
2 4 4 4 2 2 4 4 3 5 1 4 5 3 3 1 2 3 5 5 7 2 1 3 5 6 6 7 7 7 7 6 5 6 8 9 9 9 9 9 10 9 9 10 11 12 12 12 12 12 11 11 11 12 12 12 11 10 9 9 8 7 6 6 5 5 5 4 4 4 4 5 6 7 6 6 7 7 8 6 6 6 7 7 9 9
6 4 2 5 3 3 4 4 5 1 0 4 6 4 3 1 2 6 6 2 5 1 2 3 5 6 6 6 6 6 5 6 7 7 9 9 9 8 8 10 10 10 10 10 9 10 11 12 12 12 13 12 12 11 11 11 11 11 9 9 9 8 8 7 6 6 5 5 5 4 5 5 6 7 7 6 3 2 3 5 6 8 7 6 6 5
3 2 2 4 4 3 2 5 4 2 3 5 5 5 4 3 3 5 5 4 4 1 2 2 5 5 5 6 5 6 4 4 6 8 8 8 8 8 8 8 9 9 11 11 11 10 10 11 11 12 13 11 11 11 10 10 11 11 10 10 9 9 8 7 6 6 6 5 5 5 5 5 6 8 8 8 7 6 6 7 8 8 8 7 6 7
4 3 2 2 5 4 2 5 4 3 5 6 5 5 5 4 4 3 6 1 3 1 2 3 5 5 5 6 6 5 7 7 8 8 8 9 9 9 9 9 10 11 10 10 11 10 10 11 12 12 12 12 11 11 10 10 11 11 11 11 10 10 9 9 8 7 6 6 5 5 5 6 6 6 6 7 8 8 8 9 9 9 9 8 7 7
1 1 2 2 1 1 2 5 4 5 3 5 10 6 4 4 2 5 4 2 1 4 3 4 4 5 5 6 6 7 8 9 9 9 9 10 10 10 10 10 10 11 12 12 13 12 10 10 11 12 12 11 11 11 10 10 11 11 11 11 11 9 9 9 8 8 8 7 7 5 5 5 6 6 5 7 8 9 9 9 10 10 11 11 12 14
3 4 3 1 3 5 2 2 1 3 7 10 8 3 5 8 7 5 4 6 3 5 4 4 4 5 6 6 7 8 9 10 9 9 10 11 11 11 11 11 11 11 11 10 10 10 11 11 11 12 12 12 12 11 11 10 11 11 12 12 10 9 9 8 8 8 8 8 7 7 6 6 6 7 7 7 8 9 10 10 10 11 9 11 12 12
6 3 4 4 3 3 2 3 4 3 4 8 7 6 7 7 6 6 6 6 6 5 3 5 5 6 7 7 8 9 9 9 10 10 11 12 12 11 11 11 11 11 11 11 11 10 10 11 12 12 12 12 13 12 11 10 11 12 12 11 10 9 9 8 9 8 8 8 8 7 6 6 6 7 7 7 8 9 10 11 8 6 8 11 11 10
2 2 1 5 7 5 10 12 10 8 6 6 7 6 7 7 7 6 7 7 6 6 5 6 7 7 8 8 9 9 9 10 11 11 12 12 11 11 11 11 11 10 10 10 11 11 10 11 12 12 13 13 13 13 12 12 12 13 12 12 10 9 9 9 8 8 9 9 8 8 7 7 7 8 7 8 8 10 10 11 11 11 9 9 9 8
4 4 5 6 2 3 3 5 3 5 6 7 7 5 6 7 8 7 7 7 7 7 8 7 7 8 8 8 9 9 10 10 10 11 11 10 11 11 12 12 12 12 13 13 12 11 11 12 13 14 14 14 13 12 12 13 13 12 13 12 12 11 10 10 9 10 9 9 9 8 7 7 7 6 7 8 8 9 9 11 11 11 12 12 12 13
4 4 7 9 9 8 7 7 4 1 3 4 5 6 8 7 6 6 6 6 7 8 8 8 7 8 7 8 7 8 9 10 11 11 10 11 11 11 12 12 13 13 13 13 13 13 13 13 14 15 15 14 14 13 13 13 14 14 14 13 12 11 10 10 10 10 11 11 10 8 8 8 6 8 8 8 9 9 9 10 11 13 13 13 14 13
4 4 2 1 5 7 9 11 11 9 10 11 10 8 6 5 4 4 5 7 8 9 9 8 7 8 7 8 7 7 9 10 10 11 12 11 12 12 13 14 14 14 14 15 15 14 14 13 13 13 14 15 15 14 14 14 13 14 14 13 12 11 10 10 11 11 12 11 10 8 7 7 8 7 8 8 9 10 11 11 11 12 12 14 13 11
5 8 6 5 6 6 5 4 3 3 3 2 4 6 6 4 5 7 7 7 7 8 7 7 6 6 6 6 8 9 10 10 11 12 13 13 13 14 14 14 14 15 15 14 13 14 14 13 13 12 12 12 14 16 16 15 14 14 14 13 11 10 10 10 10 11 11 10 9 9 8 8 8 7 8 8 8 9 10 11 5 7 10 11 11 13
7 7 5 5 5 4 4 4 2 5 7 7 7 4 3 3 6 8 8 8 7 6 6 6 7 7 6 8 8 9 10 10 12 12 13 12 13 13 13 13 13 13 13 13 13 13 13 13 12 11 12 14 15 17 17 15 15 14 14 13 12 11 12 12 10 10 10 10 9 8 8 9 8 8 8 8 8 8 9 8 6 5 6 7 9 14
Wind_Direction
308 247 28 31 16 12 352 300 292 290 274 260 241 243 233 243 261 244 243 67 218 268 245 254 245 258 268 262 229 186 196 217 225 222 214 211 206 203 202 197 184 176 172 142 150 158 157 154 158 166 164 161 159 159 161 169 168 166 163 156 154 150 154 158 160 160 158 150 139 144 133 131 138 119 118 114 95 83 74 61 60 52 52 53 48 29
254 237 68 26 7 359 360 324 261 249 229 238 232 231 222 218 243 195 297 122 177 253 228 179 255 246 244 240 238 221 220 227 222 221 221 224 216 206 203 195 181 169 138 143 153 156 155 157 158 164 166 165 170 163 171 172 167 170 164 167 160 161 167 167 165 148 150 157 139 143 141 138 129 136 132 116 107 93 88 78 65 53 43 39 49 59
214 44 38 15 7 0 357 28 252 244 231 223 248 209 245 230 228 265 162 151 165 235 238 140 248 244 229 246 156 242 246 246 248 236 227 219 210 207 198 193 184 177 167 169 163 162 165 161 161 165 167 170 175 164 174 174 172 169 173 172 169 174 175 168 162 164 153 132 107 110 117 110 96 71 75 90 91 94 91 81 75 62 35 17 40 45
228 58 27 359 345 285 117 55 188 231 234 243 218 224 229 74 266 203 145 160 163 251 294 248 258 245 220 222 235 249 254 241 200 236 217 222 229 215 210 203 197 191 180 179 174 173 169 168 164 166 171 169 174 168 178 179 177 175 184 180 181 177 184 165 163 153 124 115 108 105 100 93 91 107 104 107 112 108 108 91 54 45 36 25 17 32
34 26 11 336 303 300 312 26 348 298 266 112 312 308 300 356 228 286 133 185 194 202 251 255 240 241 214 185 159 124 110 323 63 73 322 241 247 289 318 242 216 219 195 191 183 178 175 173 174 174 170 167 176 178 178 181 184 181 187 186 188 183 184 167 158 148 135 132 126 118 112 107 111 130 135 137 117 103 90 91 83 70 51 47 58 66
79 24 320 294 324 324 322 328 6 331 286 10 71 8 345 327 311 275 292 255 230 221 182 259 255 238 190 212 85 104 132 60 44 32 31 34 14 242 232 236 238 231 228 210 203 189 184 181 173 175 173 177 178 180 178 183 188 185 190 188 189 185 183 169 161 155 154 151 145 146 148 150 151 146 158 145 138 137 117 88 90 76 67 66 63 71
25 40 356 336 325 317 322 335 19 336 293 268 56 2 344 319 293 285 261 245 250 254 154 254 265 254 173 226 125 40 63 64 57 49 40 26 14 340 291 260 235 227 219 208 210 202 190 186 178 178 179 181 181 180 175 180 190 194 193 190 189 190 182 174 168 168 168 160 160 164 162 154 155 138 105 86 95 102 109 108 97 88 74 77 74 62
352 34 3 350 332 314 325 319 12 337 325 296 25 349 320 311 298 290 290 267 274 290 243 237 256 265 243 156 62 72 88 57 43 42 31 26 18 14 354 302 257 242 223 214 204 206 198 191 187 184 180 180 180 175 179 181 186 196 197 195 195 195 188 181 176 181 183 172 167 166 160 150 154 140 132 139 124 113 116 115 118 115 105 83 75 78
360 45 19 4 348 12 12 2 349 336 310 357 348 329 303 300 311 294 270 269 272 288 262 251 230 256 253 150 84 13 74 28 32 30 26 23 19 17 11 358 323 263 245 232 218 203 198 192 191 187 182 180 176 174 179 185 184 189 198 201 203 204 196 185 187 192 189 190 172 170 162 153 135 135 144 145 143 138 128 127 117 99 101 93 74 77
71 18 33 18 10 9 352 336 355 335 307 352 324 302 279 271 275 269 254 261 266 243 260 258 219 262 228 49 62 60 35 21 13 24 25 21 20 18 12 7 2 322 256 236 230 226 211 198 190 188 182 174 174 174 172 181 188 190 192 197 201 207 205 193 192 201 197 193 184 178 168 156 146 148 147 153 144 145 150 133 133 132 127 120 124 109
79 96 44 42 17 355 332 326 323 318 297 300 296 292 280 278 251 233 243 247 239 246 252 30 317 279 263 63 30 27 23 15 4 22 22 21 22 23 17 13 14 11 336 249 236 234 227 217 198 182 180 181 180 171 172 187 198 193 192 195 200 204 203 196 197 201 200 199 198 188 173 165 156 154 156 153 158 152 156 143 136 132 122 117 112 117
134 136 189 65 14 352 327 311 228 298 299 300 277 273 308 284 336 276 271 217 234 223 104 58 16 216 261 108 64 43 52 29 16 18 18 17 21 22 23 18 16 22 21 5 338 252 233 217 215 203 190 183 180 172 177 195 202 200 196 196 204 206 209 202 204 203 205 208 205 200 181 170 163 159 162 164 159 161 153 146 142 135 135 130 129 134
219 71 52 92 66 11 340 320 323 282 305 318 304 251 247 269 60 269 58 252 216 229 90 42 16 221 91 46 27 45 31 26 23 18 15 15 19 22 27 28 27 18 19 22 17 349 305 257 235 220 203 198 198 200 200 203 204 204 205 201 202 206 201 206 204 204 206 208 207 201 189 174 166 166 164 162 160 155 151 151 147 148 137 141 141 136
80 90 36 1 228 11 337 340 347 320 349 323 336 1 255 251 196 245 245 266 293 169 162 62 59 342 100 95 25 37 39 29 21 17 16 16 17 19 25 27 31 34 27 22 12 9 355 323 285 234 235 227 212 200 197 213 214 208 209 207 205 205 202 204 206 205 204 203 203 200 197 179 171 168 165 162 158 156 152 150 150 149 141 135 133 134
343 224 64 2 6 353 354 0 347 325 312 349 343 305 343 318 318 279 277 233 209 51 119 138 206 170 202 84 27 18 28 28 23 21 16 18 18 15 18 23 26 29 34 32 20 8 4 347 338 310 259 241 223 207 203 217 219 215 211 211 209 204 201 204 207 205 200 197 199 198 199 188 181 168 163 160 154 154 152 152 150 143 142 138 134 131
351 306 49 36 336 346 6 0 354 328 303 318 329 280 251 10 4 302 353 305 1 355 173 163 157 106 113 121 29 15 7 10 7 15 11 13 13 13 20 20 16 19 24 24 29 21 2 346 343 320 294 249 225 216 215 215 211 217 222 215 214 210 198 197 201 201 199 200 193 195 197 195 187 170 161 153 151 151 152 151 151 146 146 139 138 131
321 45 48 8 24 19 28 344 25 337 328 26 281 356 19 263 279 290 227 334 288 245 205 93 158 128 122 153 16 12 6 10 6 5 7 8 7 5 9 10 11 9 8 14 20 19 16 2 340 324 299 283 247 218 216 218 219 220 223 215 207 210 200 192 187 195 203 201 196 193 195 194 186 174 162 154 152 152 153 155 155 155 150 147 147 141
320 342 69 356 4 64 348 338 351 19 329 285 353 29 322 313 302 289 309 122 245 271 116 231 178 114 254 170 8 13 6 7 1 358 359 4 4 4 5 1 358 0 1 0 10 16 13 13 354 328 314 295 279 261 244 239 242 240 230 219 208 200 188 118 158 203 199 201 201 198 196 194 188 177 163 155 155 155 158 160 162 159 158 164 156 152
322 269 106 49 322 38 282 272 295 57 27 24 32 39 301 15 213 139 281 280 315 19 138 139 92 68 18 31 13 17 5 2 354 351 355 1 2 1 358 358 354 354 359 356 1 7 12 13 10 346 328 332 328 323 306 293 262 266 245 225 210 174 149 156 174 178 182 191 196 199 197 193 190 184 168 161 158 159 163 166 166 167 164 162 164 161
230 303 114 79 348 24 45 358 30 11 81 97 217 94 32 272 359 312 18 331 292 306 265 138 180 82 49 24 356 10 5 3 355 353 358 359 359 1 357 357 354 355 358 357 358 1 5 13 10 6 336 326 312 283 254 290 293 296 301 166 138 161 169 170 179 177 178 183 192 194 192 195 195 190 179 167 163 166 168 169 168 168 168 171 174 166
351 308 334 68 155 225 14 15 31 9 7 15 8 21 11 346 29 324 270 310 339 333 345 340 199 100 59 9 6 10 5 3 358 353 354 0 357 2 0 358 356 357 358 359 359 356 360 8 11 13 357 318 306 297 290 266 234 192 208 215 213 203 189 187 182 175 171 186 196 193 191 192 198 193 184 175 171 171 172 167 170 170 172 176 181 169
280 283 10 352 35 30 53 42 22 12 2 12 360 19 350 336 343 296 140 188 307 306 349 300 35 96 75 11 15 7 3 4 5 357 351 358 2 9 2 0 1 359 2 1 360 359 357 1 1 14 14 355 320 327 306 286 266 216 197 213 231 236 221 204 180 167 177 191 202 198 191 190 195 195 189 183 179 181 174 171 173 170 178 180 180 179
342 314 301 10 24 36 97 114 51 3 8 22 14 12 344 323 305 300 322 48 285 48 308 322 306 86 51 12 5 10 3 1 6 359 357 3 3 5 5 4 6 6 5 6 8 4 2 4 358 5 12 17 2 316 228 267 252 236 209 215 235 238 227 214 189 185 185 182 200 203 195 191 193 197 197 190 190 190 182 175 174 176 183 187 179 185
251 301 268 141 95 132 158 181 193 49 247 256 46 7 345 351 352 335 345 350 309 43 247 215 21 87 54 0 19 4 7 2 6 8 4 7 7 2 360 2 4 8 7 12 15 13 11 8 7 6 7 11 22 10 296 238 241 246 221 206 219 233 234 217 198 187 188 176 193 215 215 204 200 203 203 201 198 195 190 183 180 183 189 191 184 183
263 74 303 278 195 175 177 210 239 224 281 30 353 352 342 317 286 329 307 294 271 47 335 314 41 85 77 346 12 2 2 13 7 10 11 5 5 357 355 356 356 358 5 12 16 17 18 16 12 10 8 14 20 27 29 299 250 235 204 199 208 219 222 228 207 183 189 191 202 197 206 228 218 213 207 207 201 196 194 192 189 187 191 187 188 187
273 7 329 349 356 347 357 360 26 24 13 340 13 344 7 339 306 256 266 177 268 97 339 343 54 65 67 16 10 13 3 6 13 10 12 15 8 2 357 353 355 355 2 3 9 14 16 20 20 18 9 4 12 18 21 22 281 219 208 191 200 206 210 217 208 205 190 194 203 199 195 211 221 222 211 210 207 198 197 194 192 184 190 189 190 182
358 81 359 356 347 359 12 5 70 318 311 337 35 358 13 354 325 282 288 290 25 62 68 77 339 331 359 13 9 11 5 359 1 8 8 11 8 6 6 2 3 358 1 0 1 7 12 17 20 24 18 6 6 10 13 20 19 9 223 204 209 202 202 202 201 208 202 207 212 209 209 211 220 222 222 216 212 206 202 194 188 185 187 181 184 183
250 301 43 348 353 359 355 266 360 293 349 3 282 32 11 359 341 347 356 15 351 294 140 57 5 323 11 8 1 360 357 350 360 1 357 360 4 2 2 7 10 7 5 1 5 7 10 14 13 17 22 18 8 7 6 8 11 5 353 285 237 228 227 219 219 216 216 214 214 213 212 218 220 222 221 218 213 204 192 182 181 189 179 168 179 185
308 347 97 278 77 325 326 356 205 117 72 160 351 339 19 1 16 15 2 342 329 338 8 31 356 337 12 1 355 353 351 342 347 352 350 351 352 358 354 358 5 10 10 7 4 3 4 2 9 9 12 18 17 12 7 4 2 2 353 321 218 224 237 227 222 230 228 223 221 220 215 215 219 219 216 208 207 197 184 180 173 170 164 160 171 188
279 58 98 276 270 13 314 202 188 171 159 167 154 355 5 5 21 12 17 346 347 27 3 356 338 352 20 359 348 347 339 334 340 329 339 351 354 354 349 351 355 358 2 4 4 1 359 356 357 360 1 5 359 9 13 10 351 355 351 344 330 291 247 233 240 235 234 230 226 222 217 217 217 220 218 205 197 184 179 180 173 168 167 174 181 182
288 85 172 197 255 62 44 148 189 173 190 148 152 211 216 296 324 336 324 343 271 206 350 327 301 12 57 360 342 340 329 329 332 339 342 344 344 348 347 349 350 350 349 350 354 355 357 352 354 354 353 351 352 352 357 348 352 309 300 291 297 291 292 285 261 245 242 240 236 224 224 226 221 215 218 206 184 175 179 179 173 173 171 177 184 175
286 95 194 228 266 161 168 197 172 187 235 291 202 181 214 256 241 230 272 319 295 338 319 287 247 10 0 347 332 329 336 339 336 341 338 340 342 341 344 346 346 346 346 346 346 346 347 348 349 350 347 343 343 342 344 336 329 344 309 285 271 267 255 251 249 249 253 250 254 240 226 224 222 219 215 203 194 185 180 174 174 174 173 173 176 171
351 285 238 260 262 6 128 229 208 234 268 251 224 170 223 143 290 303 271 256 259 264 265 311 8 356 337 330 328 338 338 338 334 337 332 335 338 336 339 343 341 343 344 343 343 343 348 346 342 341 343 338 341 338 338 325 306 308 307 273 255 249 249 250 255 258 262 259 256 258 249 235 231 229 226 216 210 192 169 172 173 177 179 184 181 167
285 296 315 346 280 14 131 209 223 251 264 22 76 88 209 290 325 298 290 277 243 233 306 343 328 329 327 333 333 336 335 340 327 326 330 330 334 338 338 338 343 344 344 344 344 343 345 343 343 340 338 335 335 337 331 326 308 297 287 282 271 253 248 254 255 261 264 263 262 259 250 238 238 230 231 222 201 165 167 168 176 180 186 184 171 177
325 304 358 299 276 308 144 197 224 253 267 99 151 98 107 321 273 295 302 267 254 248 256 273 314 334 336 325 326 326 331 335 332 349 359 2 350 346 343 342 348 347 345 345 344 345 343 341 340 337 336 337 334 329 329 333 336 317 302 296 288 258 265 260 258 256 262 267 270 271 266 262 251 252 248 199 170 169 172 175 178 185 190 186 178 186
198 237 130 234 290 247 224 215 250 348 84 179 144 165 100 214 158 274 274 220 230 231 261 285 323 322 325 322 324 329 328 330 330 36 10 11 8 358 350 348 348 346 349 349 347 347 344 342 339 337 334 327 328 336 340 340 335 327 322 306 283 274 259 274 277 278 274 272 269 265 257 248 243 238 212 176 168 173 183 185 190 192 193 188 185 192
272 276 245 274 113 274 286 266 279 6 222 166 174 195 221 263 296 319 306 313 147 222 276 300 310 322 324 323 324 328 327 313 197 81 27 15 11 5 357 355 351 348 350 350 353 350 348 343 340 339 334 331 330 336 343 340 337 332 328 325 322 313 295 286 290 297 286 277 269 261 255 245 250 238 226 208 190 189 192 194 194 192 196 184 185 192
269 286 49 277 190 269 286 290 264 236 277 160 191 81 83 87 301 259 275 261 144 191 223 296 313 324 321 325 325 328 315 290 230 37 15 8 6 360 358 359 358 354 350 351 356 352 353 349 344 339 338 340 338 342 338 336 336 331 331 333 333 337 335 321 317 314 305 288 286 274 264 247 234 235 222 214 215 213 210 201 194 184 178 186 189 197
210 249 267 271 267 215 257 266 269 289 19 75 139 162 127 164 212 259 256 246 132 181 242 299 298 317 318 319 324 318 318 315 341 356 5 356 358 355 349 360 358 357 355 357 359 354 350 348 347 345 349 346 348 344 339 335 332 334 336 340 340 337 333 336 334 333 328 317 296 264 248 236 236 222 227 229 223 207 177 171 163 142 153 187 212 206
234 230 244 249 251 248 290 275 285 324 338 169 123 153 130 146 209 250 274 109 163 165 297 288 291 316 315 319 317 306 324 316 331 348 350 344 344 338 347 348 352 351 355 353 0 354 340 346 347 351 353 354 352 344 341 341 337 335 330 337 333 335 344 347 342 331 327 314 303 285 260 222 210 220 223 200 165 104 164 152 150 168 195 199 210 207
210 236 234 274 288 109 169 280 294 246 130 139 147 127 133 179 225 246 276 68 95 19 284 301 289 299 311 305 311 307 337 330 320 326 332 327 325 333 339 336 339 344 345 346 349 342 340 345 347 346 349 350 348 346 345 345 344 337 340 334 329 337 336 333 328 325 318 313 297 278 256 237 226 217 208 202 198 174 173 181 184 180 180 179 189 187
230 241 257 258 258 271 290 285 283 309 75 149 128 149 152 191 239 299 62 270 23 299 318 302 302 300 309 310 308 314 319 322 314 316 325 332 333 327 324 333 335 335 336 339 337 341 342 336 337 340 343 344 343 342 340 341 339 337 340 334 338 341 328 324 321 311 304 292 294 289 270 249 241 238 224 210 206 195 192 190 187 189 188 173 183 196
4 252 260 216 160 245 237 274 294 278 124 176 132 155 191 246 6 37 336 3 221 300 310 308 302 320 316 306 308 307 309 312 317 319 327 329 327 328 326 326 331 331 336 338 339 348 346 336 337 339 336 335 337 337 336 334 330 332 335 331 337 333 329 325 316 311 309 305 295 282 266 257 238 226 219 210 201 197 194 190 192 190 186 191 194 202
81 265 278 245 174 292 246 244 293 45 118 159 179 266 171 228 317 329 309 286 294 273 284 302 321 333 325 301 306 306 310 314 316 319 322 327 329 327 325 325 324 326 328 335 335 345 340 337 341 339 339 337 335 331 330 328 324 325 324 326 333 327 321 320 322 319 311 305 296 287 275 260 249 233 227 214 206 206 204 194 195 196 194 198 202 203
160 259 356 319 105 225 303 329 47 96 142 179 215 261 294 299 285 285 279 284 292 289 320 293 313 317 310 309 304 308 308 314 318 323 324 327 328 328 328 329 327 327 333 339 339 343 337 336 335 336 339 341 339 335 329 326 322 319 313 320 321 320 321 323 322 322 314 308 304 294 282 269 256 244 235 225 207 211 217 216 187 179 199 203 207 209
163 253 38 275 266 260 269 263 275 258 229 227 222 254 277 277 276 269 267 270 260 288 295 298 311 311 315 317 309 310 312 322 325 326 325 326 328 330 327 329 328 329 331 330 331 339 325 326 328 332 336 337 339 336 335 331 324 315 313 311 311 309 311 314 315 316 316 313 307 300 291 277 262 250 238 229 222 218 221 217 191 198 196 199 197 189
217 191 221 246 259 309 292 119 228 259 259 246 255 250 239 252 271 267 260 259 278 291 296 296 296 301 304 309 310 311 313 320 320 320 322 325 329 331 331 329 327 326 326 325 329 327 325 324 323 327 330 331 336 334 333 331 327 321 314 310 305 304 302 305 307 306 305 307 305 299 286 276 274 266 243 232 229 225 222 224 218 208 201 200 207 207
179 156 255 245 256 252 265 285 295 227 258 260 260 271 270 266 249 248 260 272 279 281 282 287 287 289 297 298 313 308 309 316 317 319 321 324 325 324 325 325 325 323 321 319 317 323 322 322 321 321 324 326 330 332 330 326 325 324 320 310 303 300 298 295 297 300 302 302 302 298 298 289 265 256 264 252 244 243 236 222 219 224 213 210 211 202
81 144 265 257 255 261 265 260 263 264 261 256 254 253 271 298 302 268 267 275 281 286 288 289 287 287 294 303 306 310 310 312 314 320 320 318 319 322 324 321 318 316 317 316 317 316 315 317 317 317 320 322 326 328 325 323 319 320 319 315 305 300 296 295 293 292 293 296 296 293 294 289 288 279 268 262 250 243 244 243 235 229 226 220 213 195
226 242 237 244 254 260 268 314 10 289 287 252 206 233 240 247 274 281 280 281 286 292 295 292 289 296 296 314 314 313 311 311 316 319 316 316 317 319 319 320 320 319 318 320 320 320 318 317 320 319 316 319 324 323 324 322 319 316 317 318 310 301 297 295 294 293 295 295 294 298 299 300 296 285 271 264 265 259 249 236 233 272 250 226 188 188
228 250 247 234 252 280 348 339 332 293 287 287 308 298 275 262 274 287 294 300 303 296 291 288 301 310 310 306 305 304 304 306 310 317 314 313 316 319 321 323 325 324 321 322 319 318 320 321 322 317 316 318 321 320 324 323 319 315 313 317 313 304 299 296 295 298 299 298 297 307 306 300 296 296 290 277 265 257 261 256 166 107 33 350 186 187